RH
20 19 18 20 21 20 19 18 17 18 19 23 28 31 36 35 38 40 46 57 66 57 53 58 61 63 57 47 40 46 49 53 55 53 40 23 16 10 9 13 15 25 100 100
22 23 24 24 23 22 20 19 19 18 18 21 26 28 32 41 50 54 58 65 62 65 68 68 63 54 45 45 45 48 53 60 54 41 26 18 10 8 13 15 18 99 100 96
21 23 24 24 24 23 20 18 19 18 18 21 24 28 37 47 54 64 73 77 80 84 80 73 60 52 45 44 50 54 62 54 38 24 18 11 10 14 18 19 28 83 86 89
19 22 22 22 24 24 20 18 20 20 22 23 27 31 42 46 55 73 87 90 91 86 74 62 53 44 43 49 57 63 55 39 26 18 12 10 15 19 23 23 31 58 80 69
22 22 22 21 24 23 19 21 23 25 33 28 30 37 45 51 57 70 80 84 88 72 58 49 45 41 44 54 63 58 45 34 19 12 10 16 19 26 42 53 77 85 66 65
23 23 21 21 23 23 22 24 28 34 38 34 34 39 48 51 58 72 79 78 67 59 53 47 38 37 42 57 62 53 36 22 13 11 15 19 23 43 66 84 81 74 63 54
24 22 21 22 23 23 21 25 43 45 36 36 37 45 48 55 74 86 87 73 64 58 48 40 38 42 62 68 61 40 19 14 10 13 18 20 25 59 71 73 80 80 64 51
23 23 21 23 23 22 24 29 36 43 36 38 40 45 46 63 82 82 73 66 60 52 46 47 51 65 72 64 46 21 14 11 12 17 18 21 37 66 69 72 80 84 76 65
23 22 23 22 23 23 26 28 48 48 42 38 40 42 55 77 77 72 67 65 62 56 55 64 76 78 67 50 23 16 12 12 14 17 18 23 51 67 62 68 87 85 82 69
23 26 25 25 25 24 26 41 51 43 40 36 42 54 72 66 64 70 68 64 62 61 65 75 78 69 51 25 19 14 12 14 15 15 21 30 62 79 70 74 86 87 82 71
22 27 27 27 28 30 47 50 43 44 38 40 59 77 71 68 74 71 70 70 69 70 76 79 72 51 28 22 16 12 14 16 14 16 27 38 64 81 72 66 86 90 80 83
44 45 32 34 44 48 43 40 40 32 35 59 84 82 76 85 87 87 81 75 76 83 84 72 50 30 26 19 14 13 15 17 14 22 38 47 51 67 69 70 85 89 87 77
40 44 54 48 45 39 35 36 35 48 78 85 79 83 91 92 92 88 83 82 85 85 70 49 33 27 21 15 14 15 17 16 18 30 47 53 55 77 85 79 89 92 84 78
58 53 43 40 38 42 50 62 75 95 89 81 81 86 90 95 89 91 92 89 86 65 45 34 26 21 16 16 16 18 19 18 29 41 47 61 82 83 84 92 97 93 87 81
42 36 39 49 55 66 77 86 97 98 94 93 88 87 96 94 94 95 96 85 62 42 32 26 22 18 18 17 20 23 24 31 38 52 71 77 78 80 81 87 86 85 84 79
57 68 67 74 79 91 99 100 100 100 100 92 89 100 100 95 94 96 84 64 41 30 26 23 18 19 19 21 27 32 33 41 43 47 56 74 79 81 85 85 82 82 81 75
84 81 74 76 82 100 100 100 100 100 98 98 100 100 99 92 91 83 56 34 29 26 22 17 18 20 21 30 34 40 41 52 57 53 53 76 84 89 80 74 80 87 83 70
93 95 94 94 95 100 100 99 96 100 100 100 100 98 96 93 75 45 32 28 25 20 16 18 20 23 29 41 46 49 51 56 62 58 67 89 90 79 78 75 80 84 82 72
91 96 97 94 91 91 98 100 100 100 100 99 99 96 87 64 45 30 26 22 17 15 18 21 25 32 43 52 55 60 65 71 81 80 93 98 96 83 81 80 80 86 86 79
74 81 91 99 100 100 100 100 100 100 100 99 90 76 58 37 25 23 19 16 17 21 22 25 32 44 52 60 64 66 75 85 95 96 92 92 92 94 89 86 87 93 91 87
93 100 100 100 100 100 100 100 100 100 96 80 67 50 26 24 21 16 17 18 25 27 27 34 47 58 69 73 78 72 72 85 90 91 91 94 100 100 100 98 92 97 95 94
100 100 100 100 100 100 100 99 94 83 67 45 26 25 22 19 16 20 25 31 36 34 42 46 63 70 76 83 96 80 75 80 89 94 98 100 100 100 100 100 100 100 97 99
100 100 100 100 100 100 93 81 64 37 25 26 25 22 19 16 21 23 25 39 41 42 52 59 74 80 81 95 96 96 98 100 100 100 100 100 100 100 100 100 100 97 100 100
100 100 100 95 86 73 43 29 27 27 26 26 26 22 19 22 22 27 36 47 45 52 66 67 72 91 96 100 100 100 100 100 99 98 96 93 98 100 100 100 100 100 100 100
94 88 69 41 30 29 27 27 29 33 34 32 27 24 25 25 22 25 44 61 52 58 83 88 84 78 93 97 95 92 92 94 91 91 96 96 87 99 100 100 100 100 100 100
36 30 29 28 28 30 31 34 33 34 32 28 26 28 28 26 20 23 45 66 60 63 85 100 98 91 86 89 93 93 89 85 80 80 83 80 80 94 100 100 100 100 100 100
23 26 29 31 35 38 44 48 41 33 28 29 29 30 31 28 21 24 46 59 64 68 85 100 100 96 94 98 97 92 86 79 67 45 37 41 58 78 100 100 100 100 100 100
Wind_Speed
8 10 12 13 15 19 20 23 24 25 27 25 22 23 26 31 35 38 40 42 45 48 51 55 59 63 66 70 75 80 83 85 88 89 89 91 93 91 80 72 66 55 49 58
13 13 15 17 18 21 24 27 29 31 32 32 32 33 34 36 38 40 41 43 46 51 56 60 62 64 69 74 78 82 85 87 90 90 91 94 92 84 73 65 58 46 51 51
18 19 21 22 23 25 29 29 31 34 36 38 38 36 36 37 38 40 42 46 50 55 60 62 64 68 73 76 80 84 86 87 89 89 93 93 83 71 60 54 41 35 35 33
22 24 25 27 26 30 32 32 35 37 38 40 40 39 41 42 42 44 47 50 53 58 60 63 67 72 75 78 81 83 84 87 89 93 92 83 69 58 50 41 32 28 27 31
26 27 29 31 31 34 35 36 39 40 44 44 44 44 45 46 47 48 50 52 56 58 61 66 70 73 75 79 81 82 86 89 91 90 83 69 57 46 36 27 27 29 28 32
30 32 34 34 35 36 38 39 41 43 45 44 44 46 47 49 50 52 52 55 58 61 65 68 71 74 78 80 81 85 87 89 89 81 71 58 47 37 29 30 31 31 32 35
35 37 37 39 40 41 42 43 48 49 48 48 48 48 48 51 52 51 53 57 60 65 67 71 75 79 79 80 84 87 87 89 83 73 59 49 39 32 30 32 34 32 33 37
40 40 41 41 43 44 45 45 49 52 49 50 52 51 53 53 50 53 56 60 64 67 72 76 79 79 78 82 85 84 86 84 74 61 51 42 33 28 30 34 33 32 33 37
41 40 41 44 45 46 46 48 55 54 53 55 53 54 56 54 54 57 61 64 68 72 76 77 76 77 81 84 83 83 81 76 66 53 44 35 29 29 32 34 31 31 33 37
43 41 42 45 46 50 52 57 60 56 55 56 55 57 57 57 58 62 66 69 73 75 75 73 74 78 81 81 83 81 74 69 58 46 37 31 28 28 31 31 30 32 33 36
47 45 47 46 47 51 56 60 57 55 56 55 56 57 58 59 61 65 70 74 75 74 72 72 77 79 79 81 80 74 68 61 51 38 32 29 29 29 31 32 31 31 32 35
41 42 43 43 47 52 55 56 55 55 54 57 59 59 60 63 68 71 73 74 73 70 71 76 78 78 82 79 75 67 60 52 43 32 29 29 29 30 31 33 31 30 31 32
41 42 43 47 51 54 55 55 54 54 55 59 59 61 64 67 69 72 74 73 70 71 75 77 78 81 79 75 67 60 52 43 35 30 27 29 28 28 30 32 29 29 31 30
42 44 48 50 53 54 53 53 53 54 56 59 61 63 66 67 71 74 73 70 70 73 76 80 80 77 74 68 59 53 42 35 30 27 27 26 26 27 28 27 27 29 30 31
45 47 50 53 54 54 54 55 56 57 60 62 63 65 68 71 74 73 69 69 72 76 79 79 75 72 67 60 52 44 35 29 26 25 25 27 27 27 28 26 27 28 30 32
46 48 49 51 52 53 52 53 57 60 62 63 66 70 72 74 72 68 70 74 76 78 77 74 72 65 59 52 45 38 31 26 25 27 28 28 26 25 24 25 28 29 31 33
46 49 50 50 47 48 51 56 60 62 65 68 71 72 72 70 68 69 73 77 77 76 73 71 64 57 52 46 40 35 31 28 28 29 27 25 21 22 24 26 28 28 29 31
47 49 50 51 53 55 56 59 63 66 68 70 70 69 66 66 69 74 77 75 73 72 68 62 56 51 46 40 37 33 30 28 28 27 24 19 20 23 26 27 26 26 28 30
49 51 52 52 54 56 60 63 64 66 68 68 66 65 66 72 76 76 73 71 69 64 58 53 50 46 40 37 35 31 29 27 25 23 21 21 23 26 27 28 27 26 27 28
53 55 55 56 58 58 59 61 64 66 64 63 64 68 74 75 74 71 68 66 61 55 52 48 46 41 38 36 33 30 27 24 22 22 23 23 26 28 28 27 26 25 26 26
57 58 58 57 56 57 60 64 63 61 62 66 72 74 72 70 68 67 62 55 53 51 47 45 43 38 34 32 30 28 27 26 25 26 27 28 29 30 29 28 26 24 25 24
55 54 53 54 59 61 59 58 60 65 69 70 69 67 65 64 62 57 55 53 50 47 44 42 39 35 30 27 26 25 26 26 28 29 30 31 31 30 29 28 26 24 23 23
49 52 57 55 53 55 59 64 65 65 65 65 63 63 62 60 56 55 51 49 48 43 40 39 37 32 27 24 24 24 25 26 28 30 31 32 32 31 29 29 28 25 24 24
52 51 53 56 57 57 59 60 61 61 61 61 60 60 60 56 52 54 50 46 44 41 37 37 36 31 26 24 26 28 29 30 31 33 33 33 33 32 31 30 28 27 24 24
54 51 53 54 55 57 58 57 57 58 57 58 60 60 58 53 54 52 45 44 43 39 37 37 37 34 32 32 33 34 35 36 37 38 38 37 36 34 32 31 29 28 26 25
50 53 56 57 57 57 57 57 55 54 55 56 57 55 53 53 56 51 44 43 42 39 38 38 39 38 36 36 37 38 40 40 41 41 41 40 38 35 33 31 30 28 26 26
55 56 55 54 56 56 54 54 56 55 57 55 51 49 51 53 54 48 43 42 42 39 38 38 38 37 37 37 38 39 39 40 40 40 39 37 35 33 33 33 31 29 28 26
Wind_Direction
256 267 283 302 315 325 328 328 331 331 333 330 324 315 308 307 304 305 304 303 302 302 307 308 309 310 310 311 312 312 312 314 314 316 317 317 316 316 313 309 307 305 284 286
265 273 285 296 304 313 317 326 330 329 328 327 325 323 322 318 313 310 307 304 303 306 308 309 309 310 311 312 312 313 314 316 317 319 318 317 317 315 313 311 309 292 291 300
268 274 282 293 304 312 318 326 326 324 326 324 323 320 318 313 309 307 304 303 305 306 307 309 310 311 311 313 314 316 317 317 318 319 319 318 317 317 315 314 313 303 309 313
269 275 283 293 306 311 316 323 322 321 321 320 319 317 315 313 312 306 302 302 304 306 309 311 311 313 314 315 315 316 317 319 320 320 319 318 319 318 318 318 319 313 309 314
270 276 284 293 303 310 315 322 318 321 322 320 317 313 314 314 312 306 304 305 307 308 310 312 314 315 315 316 317 318 320 320 320 319 319 321 319 319 319 324 317 309 311 317
273 280 286 292 301 305 314 315 316 318 318 314 310 310 311 311 312 309 308 307 308 310 312 313 315 317 317 318 319 320 321 320 320 320 322 321 318 317 314 317 313 309 313 315
278 283 287 292 297 303 310 310 315 315 313 310 308 308 309 312 311 310 306 307 310 313 314 316 318 318 319 319 320 321 320 321 320 321 321 319 317 312 309 310 309 307 311 315
276 283 287 291 296 304 307 308 310 310 309 308 307 308 312 313 310 307 310 312 314 314 316 318 319 319 320 320 321 321 320 320 321 320 319 316 314 308 310 312 307 308 310 316
278 284 289 292 298 304 303 304 308 309 307 306 307 310 313 310 309 310 313 314 315 317 319 320 319 319 320 321 320 320 319 320 321 318 316 314 310 308 311 314 309 308 311 316
282 284 289 292 300 301 302 305 308 308 306 307 308 311 310 310 311 314 314 315 318 319 318 318 318 319 320 319 319 320 320 320 319 315 312 311 307 310 313 314 311 310 312 316
283 290 290 299 300 300 302 305 306 303 303 306 308 308 308 311 313 313 316 317 318 317 317 317 318 319 318 318 319 322 321 319 317 311 309 307 304 305 309 312 311 310 314 316
287 288 292 295 295 296 299 302 300 301 304 305 307 308 309 310 312 314 316 316 316 316 316 318 318 317 316 318 321 322 320 317 314 308 307 308 306 303 307 308 309 313 315 318
288 289 293 293 293 296 299 299 301 302 303 305 307 308 308 310 312 314 315 316 315 316 317 318 317 315 317 321 323 321 319 315 310 309 308 309 309 308 308 309 312 315 318 320
289 292 293 293 294 296 297 298 298 297 302 307 309 307 308 311 312 314 314 314 316 317 317 316 315 317 321 322 323 320 318 313 311 313 313 311 311 312 312 310 311 315 317 321
291 292 292 294 296 295 295 297 297 301 305 307 306 307 309 311 313 312 312 315 316 316 315 315 318 320 321 322 321 320 318 316 317 318 317 314 314 314 312 308 311 316 318 321
290 292 295 297 297 295 296 296 298 301 304 305 306 307 308 310 310 311 314 316 315 314 314 317 319 319 320 319 318 319 315 314 317 317 315 313 314 313 311 311 313 317 320 323
289 296 300 300 302 294 293 294 298 300 303 303 304 305 306 308 309 314 316 315 313 314 317 318 318 318 317 316 317 318 313 306 308 312 313 313 312 312 314 314 314 317 321 325
285 293 296 295 295 293 295 297 299 301 299 299 302 304 306 309 314 316 314 312 314 316 317 316 317 317 315 315 316 315 313 308 307 310 310 308 310 313 316 318 316 319 323 329
291 296 294 293 294 295 296 297 296 294 297 301 302 305 311 314 316 313 312 313 315 317 315 316 317 316 314 314 314 310 309 311 311 310 309 307 307 313 315 317 316 317 324 330
297 296 293 293 295 295 291 291 295 298 300 303 308 312 314 312 310 311 313 315 314 316 318 318 318 315 312 312 311 304 301 305 307 308 310 309 310 311 312 313 314 315 322 326
295 294 291 288 287 289 292 295 297 300 305 308 311 311 309 308 311 314 316 316 315 318 319 321 320 316 311 310 308 303 297 298 301 305 307 309 309 309 308 309 310 311 318 320
289 286 284 285 287 291 294 297 302 305 306 306 305 306 308 310 314 316 317 315 316 317 320 323 322 318 313 308 310 310 305 303 303 306 309 310 309 307 306 304 304 305 311 312
280 282 285 288 291 295 299 301 303 303 303 303 306 307 310 313 314 314 314 311 313 315 319 323 321 316 311 308 308 311 312 310 308 307 306 305 307 308 306 301 302 299 302 306
282 286 290 295 298 299 301 300 300 302 303 305 307 309 310 311 312 314 314 313 314 313 315 318 320 314 310 306 306 306 306 307 308 308 309 308 303 301 300 297 296 297 296 298
296 298 299 298 297 296 297 300 301 303 304 306 308 308 308 309 315 317 313 313 314 310 308 311 315 313 304 302 302 302 302 304 305 306 305 306 304 298 296 295 294 295 293 291
296 295 295 296 298 299 300 299 300 302 304 304 305 304 306 313 317 317 314 312 312 308 303 304 308 310 308 305 302 302 303 303 302 302 301 300 299 294 291 292 290 290 290 290
292 293 295 296 297 297 300 301 303 303 303 303 303 303 309 314 315 313 309 308 308 306 302 301 303 306 306 306 306 305 304 304 303 302 300 298 294 288 282 285 285 283 284 285